Overview Statistics Trail Chart Weather Telemetry Raw packets
 

This is the latest recevied weather packets stored in our database for station/object W1HVD. If no packets are shown the sender has not sent any weather packets the latest 10 day(s).

<< 52 53 54 55 56 57 58 >>
Time Temp. Humidity Pressure Rain* Wind** Luminosity Snow
1777320619 18.33° C 40% 1024 hPa 0 mm - 415 W/m² -
1777320315 18.89° C 40% 1023.8 hPa 0 mm - 429 W/m² -
1777320011 18.89° C 39% 1023.6 hPa 0 mm - 443 W/m² -
1777319709 18.33° C 44% 1023.7 hPa 0 mm - 455 W/m² -
1777319406 18.33° C 39% 1023.7 hPa 0 mm - 469 W/m² -
1777319103 18.33° C 40% 1023.7 hPa 0 mm - 482 W/m² -
1777318800 17.78° C 40% 1023.8 hPa 0 mm - 494 W/m² -
1777318496 18.33° C 38% 1023.8 hPa 0 mm - 507 W/m² -
1777318193 18.89° C 38% 1023.9 hPa 0 mm - 520 W/m² -
1777317890 18.33° C 43% 1023.9 hPa 0 mm - 531 W/m² -
1777317587 18.89° C 41% 1024.1 hPa 0 mm - 542 W/m² -
1777317284 18.33° C 38% 1024.1 hPa 0 mm - 555 W/m² -
1777316979 17.78° C 39% 1024 hPa 0 mm - 566 W/m² -
1777316677 18.33° C 39% 1024.3 hPa 0 mm - 577 W/m² -
1777316373 18.33° C 40% 1024.2 hPa 0 mm - 587 W/m² -
1777316071 17.78° C 40% 1024.3 hPa 0 mm - 597 W/m² -
1777315769 18.33° C 39% 1024.2 hPa 0 mm - 606 W/m² -
1777315467 18.33° C 39% 1024.3 hPa 0 mm - 616 W/m² -
1777315164 18.33° C 39% 1024.1 hPa 0 mm - 627 W/m² -
1777314860 17.78° C 40% 1024.2 hPa 0 mm - 636 W/m² -
1777314556 17.78° C 41% 1024.2 hPa 0 mm - 645 W/m² -
1777314254 18.33° C 43% 1024.3 hPa 0 mm - 652 W/m² -
1777313951 17.22° C 39% 1024.2 hPa 0 mm - 660 W/m² -
1777313648 17.78° C 40% 1024.4 hPa 0 mm - 670 W/m² -
1777313346 17.78° C 40% 1024.4 hPa 0 mm - 675 W/m² -

* Rain latest hour (hover to see other rain measurements)
** Current wind speed in m/s (hover to see current wind gust speed)